| time (UTC) | temp F | wind direction | speed knots | gust knots | rain 1hr in | rain 24hr in | rain mn in | humidity % | barometer mb |
| 20260505092956 | 70 | 247 | 2.6 | 4.3 | 0.00 | 0.01 | 0.00 | 87 | 1012.5 |
| 20260505092628 | 70 | 43 | 0.9 | 2.6 | 0.00 | 0.01 | 0.00 | 87 | 1012.6 |
| 20260505092457 | 70 | 19 | 0.0 | 2.6 | 0.00 | 0.01 | 0.00 | 87 | 1012.6 |
| 20260505092118 | 70 | 48 | 0.0 | 2.6 | 0.00 | 0.01 | 0.00 | 87 | 1012.6 |
| 20260505091607 | 70 | 193 | 0.9 | 2.6 | 0.00 | 0.01 | 0.00 | 87 | 1012.5 |
| 20260505091456 | 69 | 192 | 1.7 | 2.6 | 0.00 | 0.01 | 0.00 | 87 | 1012.5 |
| 20260505091058 | 69 | 200 | 0.0 | 4.3 | 0.00 | 0.01 | 0.00 | 86 | 1012.5 |
| 20260505090956 | 69 | 189 | 0.9 | 4.3 | 0.00 | 0.01 | 0.00 | 86 | 1012.6 |
| 20260505090547 | 70 | 48 | 3.5 | 7.0 | 0.00 | 0.01 | 0.00 | 86 | 1012.6 |
| 20260505090456 | 70 | 71 | 2.6 | 7.0 | 0.00 | 0.01 | 0.00 | 86 | 1012.6 |
| 20260505090037 | 70 | 49 | 1.7 | 5.2 | 0.00 | 0.01 | 0.00 | 86 | 1012.6 |
| 20260505085956 | 70 | 61 | 3.5 | 5.2 | 0.00 | 0.01 | 0.00 | 86 | 1012.6 |
| 20260505085528 | 70 | 14 | 1.7 | 4.3 | 0.00 | 0.01 | 0.00 | 86 | 1012.6 |
| 20260505085456 | 70 | 48 | 1.7 | 3.5 | 0.00 | 0.01 | 0.00 | 86 | 1012.6 |
| 20260505085017 | 70 | 260 | 0.9 | 2.6 | 0.00 | 0.01 | 0.00 | 86 | 1012.5 |
| 20260505084956 | 70 | 283 | 0.9 | 2.6 | 0.00 | 0.01 | 0.00 | 86 | 1012.6 |
| 20260505084507 | 69 | 80 | 2.6 | 8.7 | 0.00 | 0.01 | 0.00 | 86 | 1012.7 |
| 20260505084456 | 69 | 83 | 3.5 | 8.7 | 0.00 | 0.01 | 0.00 | 86 | 1012.7 |
| 20260505083956 | 69 | 348 | 0.0 | 12.2 | 0.00 | 0.01 | 0.00 | 86 | 1012.7 |
| 20260505083456 | 70 | 25 | 2.6 | 9.6 | 0.00 | 0.01 | 0.00 | 86 | 1012.8 |
| 20260505083447 | 70 | 43 | 1.7 | 5.2 | 0.00 | 0.01 | 0.00 | 86 | 1012.8 |
| 20260505082956 | 70 | 299 | 0.9 | 4.3 | 0.00 | 0.02 | 0.00 | 86 | 1012.7 |
| 20260505082937 | 70 | 152 | 1.7 | 4.3 | 0.00 | 0.02 | 0.00 | 86 | 1012.7 |
| 20260505082456 | 70 | 27 | 0.9 | 6.1 | 0.00 | 0.05 | 0.00 | 85 | 1012.7 |
| 20260505082428 | 70 | 47 | 1.7 | 6.1 | 0.00 | 0.05 | 0.00 | 85 | 1012.7 |
| 20260505081955 | 70 | 3 | 0.9 | 5.2 | 0.00 | 0.07 | 0.00 | 86 | 1012.6 |
| 20260505081917 | 70 | 22 | 2.6 | 5.2 | 0.00 | 0.07 | 0.00 | 86 | 1012.6 |
| 20260505081456 | 70 | 262 | 0.9 | 4.3 | 0.00 | 0.07 | 0.00 | 85 | 1012.6 |
| 20260505081407 | 70 | 199 | 2.6 | 4.3 | 0.00 | 0.07 | 0.00 | 85 | 1012.6 |
| 20260505080956 | 70 | 329 | 0.0 | 5.2 | 0.00 | 0.07 | 0.00 | 86 | 1012.6 |
| 20260505080456 | 70 | 88 | 7.0 | 13.0 | 0.00 | 0.09 | 0.00 | 85 | 1012.6 |
| 20260505080347 | 70 | 3 | 2.6 | 5.2 | 0.00 | 0.10 | 0.00 | 85 | 1012.6 |
| 20260505075956 | 70 | 25 | 2.6 | 19.1 | 0.00 | 0.11 | 0.00 | 85 | 1012.7 |
| 20260505075837 | 70 | 18 | 4.3 | 19.1 | 0.00 | 0.11 | 0.00 | 85 | 1012.7 |
| 20260505075455 | 70 | 275 | 4.3 | 11.3 | 0.00 | 0.11 | 0.00 | 85 | 1012.7 |
| 20260505074955 | 70 | 42 | 0.9 | 12.2 | 0.00 | 0.11 | 0.00 | 86 | 1012.7 |
| 20260505074817 | 70 | 279 | 3.5 | 12.2 | 0.00 | 0.11 | 0.00 | 85 | 1012.7 |
| 20260505074456 | 70 | 286 | 2.6 | 10.4 | 0.00 | 0.11 | 0.00 | 86 | 1012.8 |
| 20260505074307 | 70 | 161 | 0.0 | 14.8 | 0.00 | 0.11 | 0.00 | 86 | 1012.9 |
| 20260505073955 | 70 | 59 | 7.8 | 14.8 | 0.00 | 0.12 | 0.00 | 85 | 1013.0 |
| 20260505073757 | 70 | 63 | 1.7 | 6.1 | 0.00 | 0.12 | 0.00 | 86 | 1013.0 |
| 20260505073455 | 70 | 250 | 1.7 | 4.3 | 0.00 | 0.12 | 0.00 | 86 | 1012.9 |
| 20260505073247 | 70 | 280 | 0.9 | 4.3 | 0.00 | 0.12 | 0.00 | 86 | 1013.0 |
| 20260505072956 | 70 | 219 | 0.0 | 7.0 | 0.00 | 0.12 | 0.00 | 86 | 1012.9 |
| 20260505072736 | 70 | 91 | 2.6 | 7.0 | 0.00 | 0.12 | 0.00 | 86 | 1013.0 |
| 20260505072455 | 70 | 259 | 2.6 | 7.0 | 0.00 | 0.15 | 0.00 | 86 | 1013.0 |
| 20260505072227 | 70 | 170 | 0.0 | 7.0 | 0.00 | 0.15 | 0.00 | 87 | 1013.0 |
| 20260505071956 | 70 | 311 | 0.0 | 9.6 | 0.00 | 0.16 | 0.00 | 87 | 1013.0 |
| 20260505071716 | 70 | 225 | 6.1 | 9.6 | 0.00 | 0.18 | 0.00 | 86 | 1012.9 |
| 20260505071455 | 70 | 272 | 1.7 | 9.6 | 0.00 | 0.18 | 0.00 | 87 | 1013.0 |
| 20260505071206 | 70 | 183 | 4.3 | 10.4 | 0.00 | 0.20 | 0.00 | 86 | 1013.1 |
| 20260505070955 | 70 | 280 | 1.7 | 10.4 | 0.00 | 0.21 | 0.00 | 87 | 1013.0 |
| 20260505070657 | 70 | 256 | 2.6 | 9.6 | 0.00 | 0.21 | 0.00 | 87 | 1013.0 |
| 20260505070455 | 70 | 228 | 2.6 | 9.6 | 0.01 | 0.21 | 0.00 | 87 | 1013.0 |
| 20260505070146 | 70 | 239 | 3.5 | 7.8 | 0.01 | 0.22 | 0.00 | 87 | 1013.0 |
| 20260505065955 | 70 | 158 | 3.5 | 7.8 | 0.01 | 0.24 | 0.00 | 87 | 1013.1 |
| 20260505065636 | 70 | 298 | 2.6 | 7.8 | 0.01 | 0.24 | 0.00 | 88 | 1013.1 |
| 20260505065455 | 70 | 11 | 2.6 | 7.0 | 0.01 | 0.24 | 0.00 | 88 | 1013.2 |
| 20260505065126 | 69 | 220 | 1.7 | 8.7 | 0.01 | 0.24 | 0.00 | 87 | 1013.3 |
| 20260505064955 | 70 | 212 | 1.7 | 8.7 | 0.01 | 0.24 | 0.00 | 87 | 1013.4 |
| 20260505064616 | 70 | 82 | 0.9 | 7.0 | 0.01 | 0.25 | 0.00 | 88 | 1013.4 |
| 20260505064455 | 70 | 324 | 2.6 | 7.0 | 0.01 | 0.27 | 0.00 | 88 | 1013.5 |
| 20260505064107 | 70 | 274 | 0.9 | 7.8 | 0.01 | 0.27 | 0.00 | 88 | 1013.5 |
| 20260505063955 | 70 | 323 | 0.0 | 9.6 | 0.01 | 0.27 | 0.00 | 88 | 1013.5 |
| 20260505063556 | 69 | 263 | 1.7 | 15.6 | 0.01 | 0.27 | 0.00 | 88 | 1013.4 |
| 20260505063455 | 69 | 241 | 2.6 | 15.6 | 0.01 | 0.27 | 0.00 | 88 | 1013.5 |
| 20260505063046 | 69 | 291 | 3.5 | 9.6 | 0.01 | 0.27 | 0.00 | 88 | 1013.6 |
| 20260505062955 | 69 | 193 | 4.3 | 9.6 | 0.01 | 0.27 | 0.00 | 88 | 1013.6 |
| 20260505062536 | 70 | 26 | 0.0 | 4.3 | 0.01 | 0.29 | 0.00 | 88 | 1013.6 |
| 20260505062454 | 70 | 52 | 0.0 | 4.3 | 0.01 | 0.30 | 0.00 | 88 | 1013.6 |
| 20260505062026 | 69 | 23 | 1.7 | 6.1 | 0.01 | 0.31 | 0.00 | 88 | 1013.7 |
| 20260505061955 | 69 | 39 | 3.5 | 6.1 | 0.01 | 0.31 | 0.00 | 88 | 1013.7 |
| 20260505061517 | 69 | 224 | 4.3 | 9.6 | 0.01 | 0.33 | 0.00 | 88 | 1013.6 |
| 20260505061455 | 69 | 223 | 4.3 | 9.6 | 0.01 | 0.33 | 0.00 | 88 | 1013.6 |
| 20260505061006 | 69 | 204 | 5.2 | 9.6 | 0.01 | 0.33 | 0.00 | 88 | 1013.7 |
| 20260505060955 | 69 | 242 | 4.3 | 9.6 | 0.01 | 0.33 | 0.00 | 88 | 1013.6 |
| 20260505060457 | 69 | 222 | 4.3 | 12.2 | 0.00 | 0.34 | 0.00 | 88 | 1013.7 |
| 20260505060455 | 69 | 219 | 4.3 | 12.2 | 0.00 | 0.34 | 0.00 | 88 | 1013.7 |
| 20260505055955 | 69 | 244 | 4.3 | 10.4 | 0.00 | 0.35 | 0.00 | 88 | 1013.8 |
| 20260505055945 | 69 | 276 | 4.3 | 10.4 | 0.00 | 0.35 | 0.00 | 88 | 1013.9 |
| 20260505055454 | 69 | 232 | 2.6 | 5.2 | 0.00 | 0.35 | 0.00 | 88 | 1013.9 |
| 20260505055436 | 69 | 274 | 2.6 | 5.2 | 0.00 | 0.35 | 0.00 | 88 | 1014.0 |
| 20260505054955 | 69 | 54 | 0.9 | 9.6 | 0.00 | 0.37 | 0.00 | 88 | 1014.1 |
| 20260505054926 | 69 | 204 | 2.6 | 10.4 | 0.00 | 0.37 | 0.00 | 88 | 1014.0 |
| 20260505054454 | 69 | 249 | 3.5 | 10.4 | 0.00 | 0.38 | 0.00 | 88 | 1014.0 |
| 20260505054416 | 69 | 239 | 2.6 | 8.7 | 0.00 | 0.38 | 0.00 | 88 | 1014.0 |
| 20260505053954 | 69 | 276 | 3.5 | 6.1 | 0.00 | 0.38 | 0.00 | 88 | 1014.0 |
| 20260505053906 | 69 | 239 | 1.7 | 6.1 | 0.00 | 0.38 | 0.00 | 88 | 1014.0 |
| 20260505053454 | 69 | 1 | 0.0 | 1.7 | 0.00 | 0.40 | 0.00 | 88 | 1014.2 |
| 20260505053356 | 69 | 309 | 0.0 | 4.3 | 0.00 | 0.40 | 0.00 | 88 | 1014.2 |
| 20260505052955 | 69 | 253 | 2.6 | 6.1 | 0.00 | 0.41 | 0.00 | 87 | 1014.4 |
| 20260505052454 | 69 | 226 | 3.5 | 8.7 | 0.00 | 0.42 | 0.00 | 87 | 1014.4 |
| 20260505051954 | 69 | 216 | 3.5 | 10.4 | 0.00 | 0.42 | 0.00 | 87 | 1014.6 |
| 20260505051455 | 69 | 214 | 0.9 | 6.1 | 0.00 | 0.42 | 0.00 | 87 | 1014.5 |
| 20260505051315 | 69 | 286 | 2.6 | 6.1 | 0.00 | 0.42 | 0.00 | 87 | 1014.5 |
| 20260505050954 | 69 | 225 | 1.7 | 6.1 | 0.00 | 0.42 | 0.00 | 87 | 1014.6 |
| 20260505050454 | 69 | 35 | 0.0 | 12.2 | 0.00 | 0.43 | 0.00 | 87 | 1014.6 |
| 20260505050256 | 69 | 58 | 5.2 | 12.2 | 0.00 | 0.44 | 0.00 | 87 | 1014.6 |
| 20260505041625 | 69 | 267 | 0.0 | 3.5 | 0.00 | 0.47 | 0.00 | 88 | 1015.2 |
| 20260505041454 | 69 | 240 | 0.0 | 4.3 | 0.00 | 0.47 | 0.00 | 87 | 1015.2 |
| 20260505041115 | 69 | 300 | 0.9 | 4.3 | 0.00 | 0.47 | 0.00 | 88 | 1015.1 |
| 20260505040954 | 69 | 282 | 1.7 | 4.3 | 0.00 | 0.47 | 0.00 | 88 | 1015.2 |
| 20260505040605 | 69 | 305 | 0.9 | 9.6 | 0.00 | 0.47 | 0.00 | 88 | 1015.2 |
| 20260505040454 | 69 | 301 | 3.5 | 11.3 | 0.00 | 0.48 | 0.00 | 88 | 1015.2 |
| 20260505035954 | 69 | 237 | 7.0 | 11.3 | 0.00 | 0.48 | 0.00 | 87 | 1015.3 |
| 20260505035546 | 69 | 183 | 2.6 | 7.8 | 0.00 | 0.48 | 0.00 | 88 | 1015.3 |
| 20260505035453 | 69 | 255 | 1.7 | 7.8 | 0.00 | 0.48 | 0.00 | 87 | 1015.3 |
| 20260505035035 | 69 | 65 | 0.9 | 4.3 | 0.00 | 0.48 | 0.00 | 88 | 1015.3 |
| 20260505034954 | 69 | 35 | 0.0 | 1.7 | 0.00 | 0.48 | 0.00 | 88 | 1015.3 |
| 20260505034524 | 69 | 301 | 0.0 | 8.7 | 0.00 | 0.48 | 0.00 | 88 | 1015.5 |
| 20260505034453 | 69 | 15 | 0.0 | 8.7 | 0.00 | 0.48 | 0.00 | 88 | 1015.5 |
| 20260505034015 | 68 | 286 | 0.9 | 9.6 | 0.00 | 0.48 | 0.00 | 88 | 1015.6 |
| 20260505033953 | 68 | 300 | 0.9 | 9.6 | 0.00 | 0.48 | 0.00 | 88 | 1015.6 |
| 20260505033505 | 68 | 221 | 6.1 | 8.7 | 0.00 | 0.48 | 0.00 | 88 | 1015.7 |
| 20260505033454 | 68 | 228 | 5.2 | 8.7 | 0.00 | 0.48 | 0.00 | 88 | 1015.7 |
| 20260505032956 | 68 | 297 | 1.7 | 7.0 | 0.00 | 0.48 | 0.00 | 88 | 1015.7 |
| 20260505032953 | 68 | 292 | 1.7 | 7.0 | 0.00 | 0.48 | 0.00 | 88 | 1015.7 |
| 20260505032454 | 68 | 211 | 1.7 | 10.4 | 0.00 | 0.48 | 0.00 | 88 | 1015.6 |
| 20260505032445 | 68 | 242 | 0.9 | 10.4 | 0.00 | 0.48 | 0.00 | 88 | 1015.6 |
| 20260505031953 | 68 | 251 | 3.5 | 6.1 | 0.00 | 0.49 | 0.00 | 88 | 1015.7 |
| 20260505031934 | 68 | 248 | 2.6 | 6.1 | 0.00 | 0.49 | 0.00 | 88 | 1015.7 |
| 20260505031453 | 68 | 40 | 4.3 | 13.9 | 0.00 | 0.49 | 0.00 | 88 | 1015.7 |
| 20260505031425 | 68 | 56 | 7.8 | 13.9 | 0.00 | 0.49 | 0.00 | 88 | 1015.7 |
| 20260505030953 | 68 | 211 | 2.6 | 7.0 | 0.00 | 0.49 | 0.00 | 89 | 1015.7 |
| 20260505030914 | 68 | 360 | 0.9 | 4.3 | 0.00 | 0.49 | 0.00 | 89 | 1015.7 |
| 20260505030453 | 68 | 306 | 0.9 | 6.1 | 0.00 | 0.49 | 0.00 | 89 | 1015.8 |
| 20260505030405 | 68 | 345 | 0.9 | 6.1 | 0.00 | 0.49 | 0.00 | 89 | 1015.8 |
| 20260505025954 | 68 | 241 | 2.6 | 3.5 | 0.00 | 0.49 | 0.00 | 89 | 1015.8 |
| 20260505025855 | 68 | 241 | 0.9 | 2.6 | 0.00 | 0.49 | 0.00 | 89 | 1015.8 |
| 20260505025453 | 68 | 285 | 0.0 | 4.3 | 0.00 | 0.50 | 0.00 | 89 | 1015.9 |
| 20260505025344 | 68 | 289 | 0.9 | 5.2 | 0.00 | 0.50 | 0.00 | 89 | 1016.0 |
| 20260505024953 | 67 | 221 | 3.5 | 6.1 | 0.00 | 0.50 | 0.00 | 89 | 1016.0 |
| 20260505024453 | 68 | 199 | 5.2 | 8.7 | 0.00 | 0.50 | 0.00 | 88 | 1016.0 |
| 20260505024324 | 68 | 207 | 5.2 | 8.7 | 0.00 | 0.50 | 0.00 | 89 | 1016.0 |
| 20260505023953 | 67 | 326 | 0.0 | 7.0 | 0.00 | 0.50 | 0.00 | 89 | 1015.9 |
| 20260505023815 | 67 | 346 | 0.9 | 7.8 | 0.00 | 0.50 | 0.00 | 89 | 1015.9 |
| 20260505023453 | 67 | 48 | 3.5 | 7.8 | 0.00 | 0.50 | 0.00 | 88 | 1016.0 |
| 20260505023304 | 67 | 180 | 1.7 | 14.8 | 0.00 | 0.50 | 0.00 | 88 | 1016.0 |
| 20260505022953 | 67 | 180 | 4.3 | 14.8 | 0.00 | 0.50 | 0.00 | 89 | 1016.0 |
| 20260505022755 | 67 | 342 | 0.9 | 6.1 | 0.00 | 0.50 | 0.00 | 89 | 1016.0 |
| 20260505022453 | 67 | 302 | 0.9 | 11.3 | 0.00 | 0.50 | 0.00 | 88 | 1016.0 |
| 20260505022244 | 67 | 251 | 5.2 | 17.4 | 0.00 | 0.50 | 0.00 | 88 | 1015.9 |
| 20260505021953 | 67 | 60 | 6.1 | 17.4 | 0.00 | 0.51 | 0.00 | 88 | 1015.9 |
| 20260505021734 | 67 | 250 | 2.6 | 6.1 | 0.00 | 0.51 | 0.00 | 88 | 1015.9 |
| 20260505021454 | 67 | 191 | 1.7 | 5.2 | 0.00 | 0.51 | 0.00 | 88 | 1015.9 |
| 20260505021224 | 67 | 275 | 0.9 | 5.2 | 0.00 | 0.51 | 0.00 | 89 | 1015.9 |
| 20260505020954 | 67 | 212 | 2.6 | 7.0 | 0.00 | 0.51 | 0.00 | 89 | 1015.9 |
| 20260505020714 | 67 | 231 | 4.3 | 9.6 | 0.00 | 0.51 | 0.00 | 88 | 1015.9 |
| 20260505020453 | 67 | 292 | 2.6 | 9.6 | 0.00 | 0.51 | 0.00 | 88 | 1015.9 |
| 20260505020205 | 67 | 239 | 0.9 | 3.5 | 0.00 | 0.51 | 0.00 | 89 | 1015.9 |
| 20260505015952 | 67 | 283 | 1.7 | 5.2 | 0.00 | 0.51 | 0.00 | 88 | 1016.0 |
| 20260505015654 | 67 | 138 | 0.9 | 7.8 | 0.00 | 0.51 | 0.00 | 88 | 1016.0 |
| 20260505015453 | 67 | 193 | 2.6 | 13.0 | 0.00 | 0.51 | 0.00 | 88 | 1016.0 |
| 20260505015144 | 67 | 244 | 2.6 | 13.0 | 0.00 | 0.51 | 0.00 | 88 | 1015.9 |
| 20260505014953 | 67 | 61 | 3.5 | 9.6 | 0.00 | 0.51 | 0.00 | 88 | 1016.1 |
| 20260505014452 | 67 | 310 | 4.3 | 7.8 | 0.00 | 0.51 | 0.00 | 88 | 1016.0 |
| 20260505014124 | 67 | 214 | 3.5 | 7.0 | 0.00 | 0.51 | 0.00 | 88 | 1016.0 |
| 20260505013953 | 67 | 197 | 2.6 | 7.0 | 0.00 | 0.51 | 0.00 | 88 | 1016.0 |
| 20260505013614 | 66 | 253 | 1.7 | 8.7 | 0.00 | 0.51 | 0.00 | 88 | 1016.0 |
| 20260505013453 | 66 | 287 | 5.2 | 8.7 | 0.00 | 0.51 | 0.00 | 88 | 1016.0 |
| 20260505013104 | 67 | 288 | 1.7 | 7.0 | 0.00 | 0.51 | 0.00 | 88 | 1016.0 |
| 20260505012952 | 67 | 347 | 0.0 | 7.0 | 0.00 | 0.51 | 0.00 | 88 | 1016.0 |
| 20260505012452 | 66 | 236 | 2.6 | 7.8 | 0.00 | 0.51 | 0.00 | 88 | 1016.0 |
| 20260505011953 | 66 | 229 | 1.7 | 6.1 | 0.00 | 0.51 | 0.00 | 88 | 1016.0 |
| 20260505011533 | 66 | 44 | 2.6 | 7.8 | 0.00 | 0.51 | 0.00 | 88 | 1015.9 |
| 20260505011452 | 66 | 49 | 3.5 | 7.8 | 0.00 | 0.51 | 0.00 | 88 | 1015.9 |
| 20260505011023 | 67 | 2 | 0.0 | 4.3 | 0.00 | 0.51 | 0.00 | 88 | 1016.0 |
| 20260505010952 | 67 | 318 | 0.0 | 4.3 | 0.00 | 0.51 | 0.00 | 88 | 1016.0 |
| 20260505010514 | 66 | 228 | 3.5 | 7.0 | 0.00 | 0.51 | 0.00 | 87 | 1016.0 |
| 20260505010452 | 66 | 248 | 1.7 | 7.0 | 0.00 | 0.51 | 0.00 | 87 | 1016.0 |
| 20260505005953 | 66 | 314 | 2.6 | 14.8 | 0.00 | 0.51 | 0.00 | 87 | 1015.9 |
| 20260505005454 | 67 | 333 | 2.6 | 5.2 | 0.00 | 0.51 | 0.00 | 87 | 1015.9 |
| 20260505005452 | 67 | 334 | 2.6 | 5.2 | 0.00 | 0.51 | 0.00 | 87 | 1015.9 |
| 20260505004952 | 67 | 252 | 2.6 | 6.1 | 0.00 | 0.51 | 0.00 | 87 | 1015.8 |
| 20260505004944 | 67 | 288 | 2.6 | 6.1 | 0.00 | 0.51 | 0.00 | 87 | 1015.8 |
| 20260505004452 | 67 | 287 | 2.6 | 6.1 | 0.00 | 0.51 | 0.00 | 87 | 1015.7 |
| 20260505004434 | 67 | 290 | 2.6 | 6.1 | 0.00 | 0.51 | 0.00 | 87 | 1015.7 |
| 20260505003953 | 67 | 234 | 3.5 | 5.2 | 0.00 | 0.51 | 0.00 | 87 | 1015.7 |
| 20260505003924 | 67 | 233 | 4.3 | 5.2 | 0.00 | 0.51 | 0.00 | 87 | 1015.7 |
| 20260505003452 | 67 | 271 | 1.7 | 4.3 | 0.00 | 0.51 | 0.00 | 87 | 1015.7 |
| 20260505003413 | 67 | 304 | 1.7 | 5.2 | 0.00 | 0.51 | 0.00 | 87 | 1015.7 |
| 20260505002952 | 67 | 334 | 1.7 | 7.8 | 0.00 | 0.51 | 0.00 | 87 | 1015.6 |
| 20260505002452 | 67 | 246 | 1.7 | 4.3 | 0.00 | 0.51 | 0.00 | 87 | 1015.5 |
| 20260505002354 | 67 | 250 | 2.6 | 4.3 | 0.00 | 0.51 | 0.00 | 87 | 1015.6 |
| 20260505001951 | 67 | 273 | 1.7 | 5.2 | 0.00 | 0.51 | 0.00 | 87 | 1015.6 |
| 20260505001843 | 68 | 225 | 1.7 | 6.1 | 0.00 | 0.51 | 0.00 | 88 | 1015.6 |
| 20260505001452 | 67 | 185 | 3.5 | 6.1 | 0.00 | 0.51 | 0.00 | 87 | 1015.5 |
| 20260505001333 | 67 | 238 | 2.6 | 5.2 | 0.00 | 0.51 | 0.00 | 87 | 1015.5 |
| 20260505000952 | 67 | 41 | 1.7 | 12.2 | 0.00 | 0.51 | 0.00 | 87 | 1015.4 |
| 20260505000823 | 67 | 230 | 2.6 | 13.9 | 0.00 | 0.51 | 0.00 | 87 | 1015.4 |
| 20260505000452 | 67 | 54 | 7.8 | 13.9 | 0.00 | 0.51 | 0.00 | 87 | 1015.4 |
| 20260505000314 | 67 | 236 | 3.5 | 7.8 | 0.00 | 0.51 | 0.00 | 87 | 1015.3 |
| 20260504235952 | 67 | 26 | 0.9 | 7.8 | 0.00 | 0.51 | 0.00 | 87 | 1015.4 |
| 20260504235803 | 67 | 262 | 1.7 | 7.8 | 0.00 | 0.51 | 0.00 | 88 | 1015.3 |
| 20260504235452 | 67 | 226 | 2.6 | 4.3 | 0.00 | 0.51 | 0.00 | 88 | 1015.3 |
| 20260504235253 | 67 | 266 | 0.9 | 10.4 | 0.00 | 0.51 | 0.00 | 88 | 1015.2 |
| 20260504234952 | 67 | 275 | 2.6 | 16.5 | 0.00 | 0.51 | 0.00 | 88 | 1015.2 |
| 20260504234743 | 67 | 51 | 3.5 | 16.5 | 0.00 | 0.51 | 0.00 | 87 | 1015.3 |
| 20260504234452 | 67 | 10 | 5.2 | 12.2 | 0.00 | 0.51 | 0.00 | 88 | 1015.2 |
| 20260504234233 | 67 | 293 | 3.5 | 9.6 | 0.00 | 0.51 | 0.00 | 88 | 1015.1 |
| 20260504233951 | 67 | 236 | 3.5 | 10.4 | 0.00 | 0.51 | 0.00 | 88 | 1015.0 |
| 20260504233723 | 67 | 85 | 3.5 | 10.4 | 0.00 | 0.51 | 0.00 | 88 | 1015.0 |
| 20260504233452 | 68 | 75 | 4.3 | 7.8 | 0.00 | 0.51 | 0.00 | 88 | 1015.0 |
| 20260504233213 | 67 | 262 | 1.7 | 11.3 | 0.00 | 0.51 | 0.00 | 88 | 1015.0 |
| 20260504232952 | 67 | 285 | 5.2 | 22.6 | 0.00 | 0.51 | 0.00 | 88 | 1015.0 |
| 20260504232703 | 67 | 144 | 9.6 | 22.6 | 0.00 | 0.51 | 0.00 | 88 | 1015.0 |
| 20260504232451 | 68 | 313 | 3.5 | 11.3 | 0.00 | 0.51 | 0.00 | 88 | 1014.9 |
| 20260504232153 | 68 | 320 | 5.2 | 19.1 | 0.00 | 0.51 | 0.00 | 88 | 1014.9 |
| 20260504231951 | 68 | 237 | 7.8 | 19.1 | 0.00 | 0.51 | 0.00 | 88 | 1014.9 |
| 20260504231452 | 68 | 264 | 7.0 | 11.3 | 0.00 | 0.51 | 0.00 | 88 | 1015.0 |
| 20260504231132 | 68 | 294 | 0.9 | 8.7 | 0.00 | 0.51 | 0.00 | 88 | 1015.0 |
| 20260504230951 | 68 | 343 | 5.2 | 8.7 | 0.00 | 0.51 | 0.00 | 88 | 1015.1 |
| 20260504230623 | 68 | 190 | 1.7 | 6.1 | 0.00 | 0.51 | 0.00 | 88 | 1015.0 |
| 20260504230451 | 68 | 30 | 1.7 | 6.1 | 0.00 | 0.51 | 0.00 | 88 | 1015.0 |
| 20260504230113 | 68 | 29 | 0.0 | 10.4 | 0.00 | 0.51 | 0.00 | 88 | 1015.0 |
| 20260504225952 | 68 | 257 | 4.3 | 10.4 | 0.00 | 0.51 | 0.00 | 88 | 1014.9 |
| 20260504225603 | 68 | 295 | 3.5 | 7.0 | 0.00 | 0.51 | 0.00 | 88 | 1015.0 |
| 20260504225451 | 68 | 244 | 1.7 | 7.0 | 0.00 | 0.51 | 0.00 | 88 | 1015.0 |
| 20260504225053 | 68 | 313 | 0.9 | 5.2 | 0.00 | 0.51 | 0.00 | 88 | 1015.0 |
| 20260504224952 | 68 | 238 | 3.5 | 5.2 | 0.00 | 0.51 | 0.00 | 88 | 1015.0 |
| 20260504224543 | 68 | 335 | 1.7 | 7.8 | 0.00 | 0.51 | 0.00 | 87 | 1015.0 |
| 20260504224452 | 68 | 256 | 2.6 | 7.8 | 0.00 | 0.51 | 0.00 | 87 | 1014.9 |
| 20260504224032 | 68 | 356 | 3.5 | 7.8 | 0.00 | 0.51 | 0.00 | 87 | 1014.9 |
| 20260504223951 | 68 | 310 | 4.3 | 7.8 | 0.00 | 0.51 | 0.00 | 87 | 1014.9 |
| 20260504223522 | 68 | 13 | 2.6 | 7.8 | 0.00 | 0.51 | 0.00 | 87 | 1014.8 |
| 20260504223451 | 68 | 9 | 0.0 | 4.3 | 0.00 | 0.51 | 0.00 | 87 | 1014.9 |
| 20260504223013 | 68 | 246 | 4.3 | 14.8 | 0.00 | 0.51 | 0.00 | 87 | 1014.8 |
| 20260504222951 | 68 | 275 | 7.8 | 14.8 | 0.00 | 0.51 | 0.00 | 87 | 1014.8 |
| 20260504222502 | 68 | 2 | 2.6 | 6.1 | 0.00 | 0.51 | 0.00 | 87 | 1014.7 |
| 20260504222451 | 68 | 263 | 1.7 | 7.0 | 0.00 | 0.51 | 0.00 | 87 | 1014.7 |
| 20260504221953 | 68 | 271 | 2.6 | 7.0 | 0.00 | 0.51 | 0.00 | 86 | 1014.7 |
| 20260504221951 | 68 | 258 | 2.6 | 7.0 | 0.00 | 0.51 | 0.00 | 86 | 1014.7 |
| 20260504221451 | 68 | 278 | 3.5 | 7.0 | 0.00 | 0.51 | 0.00 | 86 | 1014.7 |
| 20260504221443 | 68 | 266 | 3.5 | 7.0 | 0.00 | 0.51 | 0.00 | 86 | 1014.8 |
| 20260504220951 | 68 | 292 | 0.9 | 6.1 | 0.00 | 0.51 | 0.00 | 86 | 1014.8 |
| 20260504220932 | 68 | 324 | 1.7 | 7.8 | 0.00 | 0.51 | 0.00 | 86 | 1014.8 |
| 20260504220451 | 69 | 232 | 5.2 | 13.0 | 0.00 | 0.51 | 0.00 | 85 | 1014.8 |
| 20260504220422 | 69 | 224 | 2.6 | 13.0 | 0.00 | 0.51 | 0.00 | 85 | 1014.7 |
| 20260504215951 | 69 | 359 | 1.7 | 11.3 | 0.00 | 0.51 | 0.00 | 84 | 1014.7 |
| 20260504215913 | 69 | 53 | 1.7 | 11.3 | 0.00 | 0.51 | 0.00 | 84 | 1014.8 |
| 20260504215451 | 69 | 275 | 1.7 | 6.1 | 0.00 | 0.51 | 0.00 | 84 | 1014.7 |
| 20260504215402 | 69 | 262 | 1.7 | 6.1 | 0.00 | 0.51 | 0.00 | 84 | 1014.8 |
| 20260504214951 | 69 | 255 | 1.7 | 7.0 | 0.00 | 0.51 | 0.00 | 84 | 1014.8 |
| 20260504214852 | 69 | 257 | 2.6 | 7.0 | 0.00 | 0.51 | 0.00 | 84 | 1014.8 |
| 20260504214451 | 69 | 33 | 2.6 | 9.6 | 0.00 | 0.51 | 0.00 | 84 | 1014.5 |
| 20260504214342 | 69 | 238 | 1.7 | 9.6 | 0.00 | 0.51 | 0.00 | 84 | 1014.6 |
| 20260504213951 | 69 | 325 | 2.6 | 15.6 | 0.00 | 0.51 | 0.00 | 84 | 1014.4 |
| 20260504213832 | 69 | 214 | 5.2 | 15.6 | 0.00 | 0.51 | 0.00 | 84 | 1014.4 |
| 20260504213451 | 69 | 294 | 5.2 | 14.8 | 0.00 | 0.51 | 0.00 | 84 | 1014.3 |
| 20260504213323 | 69 | 249 | 7.0 | 14.8 | 0.00 | 0.51 | 0.00 | 84 | 1014.2 |
| 20260504212950 | 69 | 360 | 0.9 | 4.3 | 0.00 | 0.51 | 0.00 | 84 | 1014.2 |
| 20260504212812 | 69 | 343 | 3.5 | 8.7 | 0.00 | 0.51 | 0.00 | 84 | 1014.2 |
| 20260504212451 | 69 | 352 | 2.6 | 8.7 | 0.00 | 0.51 | 0.00 | 83 | 1014.2 |
| 20260504212304 | 69 | 243 | 2.6 | 6.1 | 0.00 | 0.51 | 0.00 | 83 | 1014.2 |
| 20260504211950 | 69 | 291 | 2.6 | 7.8 | 0.00 | 0.51 | 0.00 | 83 | 1014.3 |
| 20260504211752 | 70 | 296 | 1.7 | 11.3 | 0.00 | 0.51 | 0.00 | 83 | 1014.3 |
| 20260504211451 | 70 | 301 | 2.6 | 11.3 | 0.00 | 0.51 | 0.00 | 83 | 1014.3 |
| 20260504211242 | 70 | 240 | 3.5 | 8.7 | 0.00 | 0.51 | 0.00 | 83 | 1014.4 |
| 20260504210950 | 70 | 236 | 4.3 | 7.8 | 0.00 | 0.51 | 0.00 | 83 | 1014.3 |
| 20260504210732 | 70 | 203 | 3.5 | 12.2 | 0.00 | 0.51 | 0.00 | 83 | 1014.3 |
| 20260504210450 | 70 | 352 | 1.7 | 13.0 | 0.00 | 0.51 | 0.00 | 83 | 1014.2 |
| 20260504210222 | 70 | 270 | 4.3 | 8.7 | 0.00 | 0.51 | 0.00 | 83 | 1014.2 |
| 20260504205951 | 70 | 263 | 3.5 | 7.8 | 0.00 | 0.51 | 0.00 | 83 | 1014.2 |
| 20260504205710 | 70 | 294 | 1.7 | 7.8 | 0.00 | 0.51 | 0.00 | 83 | 1014.3 |
| 20260504205450 | 70 | 256 | 2.6 | 7.8 | 0.00 | 0.51 | 0.00 | 83 | 1014.3 |
| 20260504205202 | 70 | 298 | 2.6 | 8.7 | 0.00 | 0.51 | 0.00 | 83 | 1014.4 |
| 20260504204951 | 70 | 272 | 5.2 | 8.7 | 0.00 | 0.51 | 0.00 | 83 | 1014.4 |
| 20260504204652 | 70 | 267 | 0.0 | 8.7 | 0.00 | 0.51 | 0.00 | 83 | 1014.4 |
| 20260504204449 | 70 | 336 | 3.5 | 8.7 | 0.00 | 0.51 | 0.00 | 83 | 1014.4 |
| 20260504204142 | 70 | 74 | 1.7 | 7.8 | 0.00 | 0.51 | 0.00 | 82 | 1014.3 |
| 20260504203950 | 70 | 232 | 0.9 | 13.9 | 0.00 | 0.51 | 0.00 | 83 | 1014.3 |
| 20260504203632 | 70 | 298 | 3.5 | 13.9 | 0.00 | 0.51 | 0.00 | 83 | 1014.2 |
| 20260504203451 | 70 | 232 | 7.8 | 13.0 | 0.00 | 0.51 | 0.00 | 83 | 1014.2 |
| 20260504203121 | 70 | 26 | 3.5 | 11.3 | 0.00 | 0.51 | 0.00 | 83 | 1014.2 |
| 20260504202950 | 70 | 296 | 1.7 | 11.3 | 0.00 | 0.51 | 0.00 | 83 | 1014.1 |
| 20260504202612 | 70 | 30 | 2.6 | 7.0 | 0.00 | 0.51 | 0.00 | 83 | 1014.1 |
| 20260504202451 | 70 | 234 | 1.7 | 8.7 | 0.00 | 0.51 | 0.00 | 83 | 1014.2 |
| 20260504202101 | 70 | 250 | 4.3 | 15.6 | 0.00 | 0.51 | 0.00 | 83 | 1014.2 |
| 20260504201950 | 70 | 10 | 4.3 | 15.6 | 0.00 | 0.51 | 0.00 | 83 | 1014.1 |
| 20260504201552 | 70 | 340 | 3.5 | 10.4 | 0.00 | 0.51 | 0.00 | 83 | 1014.2 |
| 20260504201450 | 70 | 214 | 5.2 | 10.4 | 0.00 | 0.51 | 0.00 | 83 | 1014.1 |
| 20260504201041 | 70 | 171 | 1.7 | 10.4 | 0.00 | 0.51 | 0.00 | 83 | 1014.2 |
| 20260504200950 | 70 | 271 | 3.5 | 10.4 | 0.00 | 0.51 | 0.00 | 83 | 1014.2 |
| 20260504200531 | 70 | 299 | 2.6 | 8.7 | 0.00 | 0.51 | 0.00 | 83 | 1014.1 |
| 20260504200450 | 70 | 267 | 4.3 | 8.7 | 0.00 | 0.51 | 0.00 | 83 | 1014.2 |
| 20260504200022 | 70 | 355 | 1.7 | 4.3 | 0.00 | 0.51 | 0.00 | 83 | 1014.1 |
| 20260504195950 | 70 | 279 | 0.9 | 3.5 | 0.00 | 0.51 | 0.00 | 83 | 1014.1 |
| 20260504195512 | 70 | 152 | 1.7 | 13.9 | 0.00 | 0.51 | 0.00 | 83 | 1014.2 |
| 20260504195450 | 70 | 317 | 3.5 | 13.9 | 0.00 | 0.51 | 0.00 | 83 | 1014.2 |
| 20260504195001 | 70 | 331 | 1.7 | 5.2 | 0.00 | 0.51 | 0.00 | 84 | 1014.2 |
| 20260504194950 | 70 | 360 | 0.9 | 5.2 | 0.00 | 0.51 | 0.00 | 84 | 1014.2 |
| 20260504194452 | 70 | 63 | 0.9 | 10.4 | 0.00 | 0.51 | 0.00 | 83 | 1014.1 |
| 20260504194449 | 70 | 109 | 0.9 | 10.4 | 0.00 | 0.51 | 0.00 | 83 | 1014.2 |
| 20260504193950 | 70 | 335 | 7.0 | 18.2 | 0.00 | 0.51 | 0.00 | 84 | 1014.0 |
| 20260504193941 | 70 | 18 | 8.7 | 18.2 | 0.00 | 0.51 | 0.00 | 84 | 1014.0 |
| 20260504193450 | 70 | 269 | 6.1 | 12.2 | 0.00 | 0.51 | 0.00 | 84 | 1014.0 |
| 20260504193431 | 70 | 272 | 8.7 | 12.2 | 0.00 | 0.51 | 0.00 | 84 | 1014.0 |
| 20260504192921 | 70 | 232 | 3.5 | 8.7 | 0.00 | 0.51 | 0.00 | 84 | 1014.0 |
| 20260504192450 | 70 | 283 | 5.2 | 8.7 | 0.00 | 0.51 | 0.00 | 84 | 1014.0 |
| 20260504192411 | 70 | 277 | 3.5 | 8.7 | 0.00 | 0.51 | 0.00 | 84 | 1013.9 |
| 20260504191950 | 70 | 294 | 4.3 | 11.3 | 0.00 | 0.51 | 0.00 | 84 | 1014.0 |
| 20260504191901 | 70 | 254 | 4.3 | 13.9 | 0.00 | 0.51 | 0.00 | 84 | 1014.0 |
| 20260504191449 | 70 | 226 | 5.2 | 13.9 | 0.00 | 0.51 | 0.00 | 84 | 1014.0 |
| 20260504191351 | 70 | 255 | 3.5 | 8.7 | 0.00 | 0.51 | 0.00 | 84 | 1014.0 |
| 20260504190950 | 70 | 24 | 0.0 | 7.8 | 0.00 | 0.51 | 0.00 | 84 | 1014.1 |
| 20260504190841 | 70 | 53 | 0.0 | 7.8 | 0.00 | 0.51 | 0.00 | 84 | 1014.1 |
| 20260504190450 | 70 | 20 | 0.9 | 8.7 | 0.00 | 0.51 | 0.00 | 85 | 1014.2 |
| 20260504190331 | 70 | 37 | 3.5 | 13.9 | 0.00 | 0.51 | 0.00 | 85 | 1014.1 |
| 20260504185949 | 70 | 25 | 3.5 | 13.9 | 0.00 | 0.51 | 0.00 | 85 | 1014.2 |
| 20260504185820 | 70 | 67 | 0.9 | 7.0 | 0.00 | 0.51 | 0.00 | 85 | 1014.2 |
| 20260504185449 | 70 | 334 | 2.6 | 7.0 | 0.00 | 0.51 | 0.00 | 85 | 1014.2 |
| 20260504185311 | 70 | 336 | 0.9 | 6.1 | 0.00 | 0.51 | 0.00 | 85 | 1014.2 |
| 20260504184950 | 70 | 34 | 2.6 | 6.1 | 0.00 | 0.51 | 0.00 | 85 | 1014.2 |
| 20260504184800 | 70 | 47 | 1.7 | 5.2 | 0.00 | 0.51 | 0.00 | 85 | 1014.3 |
| 20260504184449 | 70 | 205 | 1.7 | 6.1 | 0.00 | 0.51 | 0.00 | 85 | 1014.4 |
| 20260504184251 | 70 | 313 | 1.7 | 6.1 | 0.00 | 0.51 | 0.00 | 84 | 1014.4 |
| 20260504183949 | 70 | 245 | 0.9 | 7.0 | 0.00 | 0.51 | 0.00 | 84 | 1014.4 |
| 20260504183741 | 70 | 359 | 0.0 | 7.0 | 0.00 | 0.51 | 0.00 | 84 | 1014.3 |
| 20260504183449 | 70 | 351 | 2.6 | 5.2 | 0.00 | 0.51 | 0.00 | 84 | 1014.3 |
| 20260504183230 | 70 | 110 | 2.6 | 7.0 | 0.00 | 0.51 | 0.00 | 84 | 1014.4 |
| 20260504182949 | 70 | 330 | 3.5 | 7.0 | 0.00 | 0.51 | 0.00 | 84 | 1014.4 |
| 20260504182721 | 71 | 273 | 1.7 | 3.5 | 0.00 | 0.51 | 0.00 | 84 | 1014.3 |
| 20260504182450 | 71 | 62 | 0.0 | 10.4 | 0.00 | 0.51 | 0.00 | 84 | 1014.4 |
| 20260504182210 | 71 | 347 | 5.2 | 10.4 | 0.00 | 0.51 | 0.00 | 83 | 1014.5 |
| 20260504181949 | 71 | 46 | 1.7 | 6.1 | 0.00 | 0.51 | 0.00 | 83 | 1014.7 |
| 20260504181700 | 71 | 360 | 0.9 | 10.4 | 0.00 | 0.51 | 0.00 | 83 | 1014.9 |
| 20260504181449 | 71 | 27 | 2.6 | 12.2 | 0.00 | 0.51 | 0.00 | 83 | 1014.8 |
| 20260504181151 | 71 | 21 | 3.5 | 12.2 | 0.00 | 0.51 | 0.00 | 83 | 1014.9 |
| 20260504180949 | 71 | 25 | 0.9 | 7.8 | 0.00 | 0.51 | 0.00 | 83 | 1014.9 |
| 20260504180641 | 71 | 359 | 2.6 | 11.3 | 0.00 | 0.51 | 0.00 | 83 | 1015.0 |
| 20260504180449 | 71 | 201 | 7.0 | 11.3 | 0.00 | 0.51 | 0.00 | 83 | 1015.0 |
| 20260504180130 | 71 | 138 | 0.9 | 5.2 | 0.00 | 0.51 | 0.00 | 83 | 1014.9 |
| 20260504175949 | 71 | 343 | 1.7 | 5.2 | 0.00 | 0.51 | 0.00 | 83 | 1015.0 |
| 20260504175621 | 71 | 181 | 2.6 | 5.2 | 0.00 | 0.51 | 0.00 | 83 | 1015.1 |
| 20260504175449 | 71 | 273 | 1.7 | 4.3 | 0.00 | 0.51 | 0.00 | 83 | 1015.1 |
| 20260504175110 | 71 | 308 | 0.9 | 10.4 | 0.00 | 0.51 | 0.00 | 83 | 1015.1 |
| 20260504174949 | 71 | 268 | 0.9 | 12.2 | 0.00 | 0.51 | 0.00 | 83 | 1015.2 |
| 20260504174600 | 71 | 270 | 3.5 | 12.2 | 0.00 | 0.51 | 0.00 | 83 | 1015.2 |
| 20260504174449 | 71 | 225 | 2.6 | 11.3 | 0.00 | 0.51 | 0.00 | 83 | 1015.1 |
| 20260504174051 | 72 | 27 | 1.7 | 8.7 | 0.00 | 0.51 | 0.00 | 84 | 1015.1 |
| 20260504173949 | 71 | 243 | 0.0 | 8.7 | 0.00 | 0.51 | 0.00 | 83 | 1015.2 |
| 20260504173540 | 71 | 330 | 4.3 | 10.4 | 0.00 | 0.51 | 0.00 | 83 | 1015.1 |
| 20260504173449 | 71 | 10 | 2.6 | 10.4 | 0.00 | 0.51 | 0.00 | 84 | 1015.1 |
| 20260504173030 | 72 | 345 | 1.7 | 7.0 | 0.00 | 0.51 | 0.00 | 83 | 1015.2 |
| 20260504172949 | 72 | 356 | 1.7 | 7.0 | 0.00 | 0.51 | 0.00 | 83 | 1015.2 |
| 20260504172520 | 72 | 343 | 0.9 | 5.2 | 0.00 | 0.51 | 0.00 | 83 | 1015.3 |
| 20260504172448 | 72 | 13 | 0.0 | 5.2 | 0.00 | 0.51 | 0.00 | 83 | 1015.3 |
| 20260504172010 | 72 | 95 | 3.5 | 6.1 | 0.00 | 0.51 | 0.00 | 83 | 1015.3 |
| 20260504171949 | 72 | 30 | 3.5 | 6.1 | 0.00 | 0.51 | 0.00 | 83 | 1015.3 |
| 20260504171500 | 72 | 48 | 1.7 | 12.2 | 0.00 | 0.51 | 0.00 | 83 | 1015.3 |
| 20260504171448 | 72 | 37 | 2.6 | 12.2 | 0.00 | 0.51 | 0.00 | 83 | 1015.3 |
| 20260504170951 | 72 | 34 | 3.5 | 12.2 | 0.00 | 0.51 | 0.00 | 82 | 1015.4 |
| 20260504170949 | 72 | 360 | 3.5 | 12.2 | 0.00 | 0.51 | 0.00 | 82 | 1015.4 |
| 20260504170448 | 72 | 260 | 1.7 | 6.1 | 0.00 | 0.51 | 0.00 | 82 | 1015.4 |
| 20260504170439 | 72 | 312 | 0.9 | 6.1 | 0.00 | 0.51 | 0.00 | 82 | 1015.4 |
| 20260504160240 | 72 | 313 | 2.6 | 7.0 | 0.00 | 0.51 | 0.00 | 84 | 1015.7 |
| 20260504151059 | 71 | 217 | 2.6 | 14.8 | 0.00 | 0.51 | 0.00 | 85 | 1016.4 |
| 20260504150947 | 71 | 360 | 2.6 | 14.8 | 0.00 | 0.51 | 0.00 | 85 | 1016.4 |
| 20260504150549 | 71 | 252 | 7.8 | 11.3 | 0.00 | 0.51 | 0.00 | 85 | 1016.3 |
| 20260504150448 | 71 | 225 | 0.9 | 7.8 | 0.00 | 0.51 | 0.00 | 85 | 1016.4 |
| 20260504140948 | 72 | 351 | 0.9 | 15.6 | 0.00 | 0.51 | 0.00 | 86 | 1016.1 |
| 20260504140858 | 71 | 274 | 8.7 | 15.6 | 0.00 | 0.51 | 0.00 | 86 | 1016.1 |
| 20260504140447 | 72 | 337 | 3.5 | 11.3 | 0.00 | 0.51 | 0.00 | 86 | 1016.1 |
| 20260504140348 | 72 | 2 | 6.1 | 14.8 | 0.00 | 0.51 | 0.00 | 86 | 1016.1 |
| 20260504130658 | 73 | 231 | 3.5 | 10.4 | 0.00 | 0.51 | 0.00 | 85 | 1015.7 |
| 20260504130447 | 73 | 263 | 3.5 | 10.4 | 0.00 | 0.51 | 0.00 | 85 | 1015.7 |
| 20260504130148 | 73 | 252 | 1.7 | 10.4 | 0.00 | 0.51 | 0.00 | 85 | 1015.6 |
| 20260504110445 | 73 | 339 | 4.3 | 8.7 | 0.00 | 0.51 | 0.00 | 85 | 1015.0 |
| 20260504110257 | 73 | 119 | 1.7 | 9.6 | 0.00 | 0.51 | 0.00 | 85 | 1015.1 |
| 20260504100607 | 73 | 219 | 0.9 | 11.3 | 0.00 | 0.51 | 0.00 | 85 | 1014.5 |
| 20260504100446 | 73 | 317 | 0.9 | 11.3 | 0.00 | 0.51 | 0.00 | 85 | 1014.4 |